Silver Bay, MN

3:18 AM CDT on May 25, 2017 (GMT -0500)
Silver Bay Municipal

Weather History for KBFW - January, 2014

Change the Weather History Date:

Friday, January 24, 2014

  Actual Average Record
Temperature  
Mean Temperature 10 °F -  
Max Temperature 24 °F 18 °F 39 °F (2015)
Min Temperature -5 °F 0 °F -29 °F (2013)
Degree Days  
Heating Degree Days 56    
Moisture  
Dew Point 9 °F    
Average Humidity 84    
Maximum Humidity 100    
Minimum Humidity 57    
Precipitation  
Precipitation 0.00 in - - ()
Sea Level Pressure  
Sea Level Pressure 29.46 in    
Wind  
Wind Speed 8 mph (WSW)    
Max Wind Speed 16 mph    
Max Gust Speed 30 mph    
Visibility 7 miles    
Events Snow    
Averages and records for this station are not official NWS values.
T = Trace of Precipitation, MM = Missing Value Source: NWS Daily Summary

Daily Weather History Graph

Daily Weather History Graph

Search for Another Location

Airport or City:

Trip Planner

Search our weather history database for the weather conditions in past years. The results will help you decide how hot, cold, wet, or windy it might be!

Date:

Astronomy

Jan. 24, 2014 Rise Set
Actual Time 7:40 AM CST 4:55 PM CST
Civil Twilight 7:06 AM CST 5:29 PM CST
Nautical Twilight 6:29 AM CST 6:06 PM CST
Astronomical Twilight 5:53 AM CST 6:42 PM CST
Moon 1:02 AM CST (1/24) 11:18 AM CST (1/24)
Length of Visible Light 10h 22m
Length of Day
9h 15m
Last Quarter, 44% of the Moon is Illuminated
Jan 24
Last Quarter
Jan 30
New
Feb 6
First Quarter
Feb 14
Full
Feb 22
Last Quarter

Hourly Weather History & Observations

Time (CST) Temp. Windchill Dew Point Humidity Pressure Visibility Wind Dir Wind Speed Gust Speed Precip Events Conditions
12:13 AM -5.8 °F -26.0 °F -11.2 °F 77% 29.87 in 10.0 mi SSW 13.8 mph 20.7 mph N/A   Clear
12:33 AM -4.0 °F -21.2 °F -9.4 °F 78% 29.85 in 10.0 mi SW 10.4 mph 20.7 mph N/A   Clear
12:53 AM -2.2 °F -18.9 °F -9.4 °F 71% 29.82 in 10.0 mi SW 10.4 mph 17.3 mph N/A   Clear
1:13 AM -2.2 °F -19.9 °F -7.6 °F 78% 29.79 in 10.0 mi SSW 11.5 mph 17.3 mph N/A   Clear
1:33 AM -2.2 °F -19.9 °F -7.6 °F 78% 29.77 in 7.0 mi SSW 11.5 mph 16.1 mph N/A   Clear
1:53 AM -0.4 °F -16.7 °F -5.8 °F 78% 29.75 in 3.0 mi SSW 10.4 mph - N/A Snow Light Snow
2:13 AM -0.4 °F -19.2 °F -5.8 °F 78% 29.72 in 7.0 mi SSW 13.8 mph 19.6 mph N/A   Clear
2:33 AM -0.4 °F -15.7 °F -5.8 °F 78% 29.71 in 4.0 mi SSW 9.2 mph 16.1 mph N/A Snow Light Snow
2:53 AM -0.4 °F -14.7 °F -4.0 °F 85% 29.70 in 1.8 mi SSW 8.1 mph - N/A Snow Light Snow
3:13 AM 1.4 °F -9.9 °F -2.2 °F 85% 29.68 in 2.0 mi South 5.8 mph - N/A Snow Light Snow
3:33 AM 1.4 °F -11.3 °F -2.2 °F 85% 29.66 in 2.0 mi South 6.9 mph - N/A Snow Light Snow
3:53 AM 1.4 °F -12.5 °F -2.2 °F 85% 29.65 in 4.0 mi South 8.1 mph - N/A Snow Light Snow
4:13 AM 1.4 °F -11.3 °F -0.4 °F 92% 29.64 in 4.0 mi South 6.9 mph - N/A Snow Light Snow
4:33 AM 1.4 °F -8.3 °F -2.2 °F 85% 29.63 in 4.0 mi South 4.6 mph - N/A Snow Light Snow
4:53 AM 1.4 °F - -0.4 °F 92% 29.62 in 10.0 mi Calm Calm - N/A   Clear
5:13 AM 1.4 °F -6.2 °F -0.4 °F 92% 29.61 in 10.0 mi SSW 3.5 mph - N/A Snow Light Snow
5:33 AM 3.2 °F -6.2 °F -0.4 °F 85% 29.60 in 10.0 mi SSW 4.6 mph - N/A Snow Light Snow
5:53 AM 3.2 °F -7.8 °F 1.4 °F 92% 29.59 in 10.0 mi SSW 5.8 mph - N/A Snow Light Snow
6:13 AM 6.8 °F -2.0 °F 3.2 °F 85% 29.58 in 10.0 mi SW 4.6 mph - N/A   Mostly Cloudy
6:33 AM 6.8 °F -3.5 °F 3.2 °F 85% 29.57 in 10.0 mi SW 5.8 mph - N/A   Scattered Clouds
6:53 AM 6.8 °F -2.0 °F 5.0 °F 92% 29.57 in 10.0 mi SW 4.6 mph - N/A Snow Light Snow
7:13 AM 8.6 °F -1.3 °F 6.8 °F 92% 29.55 in 7.0 mi SW 5.8 mph - N/A Snow Light Snow
7:33 AM 8.6 °F -1.3 °F 6.8 °F 92% 29.54 in 7.0 mi SW 5.8 mph - N/A Snow Light Snow
7:53 AM 8.6 °F 2.0 °F 6.8 °F 92% 29.53 in 7.0 mi WSW 3.5 mph - N/A Snow Light Snow
8:13 AM 8.6 °F 2.0 °F 8.6 °F 100% 29.52 in 7.0 mi SW 3.5 mph - N/A Snow Light Snow
8:33 AM 10.4 °F 2.2 °F 8.6 °F 92% 29.51 in 7.0 mi SW 4.6 mph - N/A Snow Light Snow
8:53 AM 10.4 °F 4.0 °F 10.4 °F 100% 29.50 in 7.0 mi WSW 3.5 mph - N/A Snow Light Snow
9:13 AM 12.2 °F 6.1 °F 10.4 °F 92% 29.50 in 10.0 mi WSW 3.5 mph - N/A   Clear
9:33 AM 12.2 °F 4.3 °F 12.2 °F 100% 29.48 in 4.0 mi West 4.6 mph - N/A   Clear
9:53 AM 14.0 °F 8.2 °F 12.2 °F 93% 29.48 in 4.0 mi WSW 3.5 mph - N/A   Scattered Clouds
10:13 AM 15.8 °F 10.2 °F 14.0 °F 93% 29.46 in 5.0 mi WSW 3.5 mph - N/A   Scattered Clouds
10:33 AM 15.8 °F 5.1 °F 14.0 °F 93% 29.45 in 5.0 mi WSW 8.1 mph - N/A   Clear
10:53 AM 17.6 °F 9.3 °F 15.8 °F 93% 29.45 in 7.0 mi West 5.8 mph - N/A   Scattered Clouds
11:13 AM 17.6 °F 8.2 °F 15.8 °F 93% 29.42 in 7.0 mi West 6.9 mph - N/A   Scattered Clouds
11:33 AM 19.4 °F 12.8 °F 17.6 °F 93% 29.41 in 10.0 mi WSW 4.6 mph - N/A   Scattered Clouds
11:53 AM 19.4 °F 14.3 °F 17.6 °F 93% 29.39 in 10.0 mi West 3.5 mph - N/A   Scattered Clouds
12:13 PM 19.4 °F 10.4 °F 17.6 °F 93% 29.38 in 10.0 mi West 6.9 mph - N/A   Scattered Clouds
12:33 PM 19.4 °F 10.4 °F 17.6 °F 93% 29.38 in 10.0 mi West 6.9 mph - N/A   Scattered Clouds
12:53 PM 21.2 °F 13.6 °F 19.4 °F 93% 29.37 in 3.0 mi West 5.8 mph - N/A Snow Light Snow
1:13 PM 21.2 °F 12.6 °F 19.4 °F 93% 29.35 in 2.0 mi WSW 6.9 mph - N/A Snow Light Snow
1:35 PM 21.2 °F 14.9 °F 19.4 °F 93% 29.33 in 4.0 mi WSW 4.6 mph - N/A Snow Light Snow
1:53 PM 23.0 °F 17.0 °F 19.4 °F 86% 29.32 in 2.5 mi WSW 4.6 mph - N/A Snow Light Snow
2:13 PM 23.0 °F 18.4 °F 19.4 °F 86% 29.31 in 10.0 mi SW 3.5 mph - N/A   Clear
2:33 PM 23.0 °F 15.8 °F 19.4 °F 86% 29.31 in 2.0 mi WSW 5.8 mph - N/A   Clear
2:53 PM 23.0 °F 15.8 °F 21.2 °F 93% 29.31 in 2.0 mi WSW 5.8 mph - N/A Snow Light Snow
3:13 PM 24.8 °F 20.5 °F 21.2 °F 86% 29.30 in 4.0 mi WSW 3.5 mph - N/A   Clear
3:33 PM 24.8 °F 17.9 °F 21.2 °F 86% 29.29 in 10.0 mi WSW 5.8 mph - N/A   Clear
3:53 PM 24.8 °F 20.5 °F 21.2 °F 86% 29.29 in 10.0 mi WSW 3.5 mph - N/A   Clear
4:13 PM 24.8 °F 16.9 °F 21.2 °F 86% 29.29 in 10.0 mi WSW 6.9 mph - N/A Snow Light Snow
4:34 PM 24.8 °F 16.9 °F 21.2 °F 86% 29.28 in 10.0 mi WSW 6.9 mph - N/A Snow Light Snow
4:53 PM 24.8 °F 20.5 °F 21.2 °F 86% 29.27 in 7.0 mi SW 3.5 mph - N/A Snow Light Snow
5:13 PM 24.8 °F 20.5 °F 21.2 °F 86% 29.27 in 5.0 mi WSW 3.5 mph - N/A Snow Light Snow
5:33 PM 24.8 °F 20.5 °F 21.2 °F 86% 29.27 in 5.0 mi SW 3.5 mph - N/A Snow Light Snow
5:53 PM 24.8 °F 15.3 °F 21.2 °F 86% 29.26 in 5.0 mi WSW 9.2 mph - N/A Snow Light Snow
6:13 PM 24.8 °F 16.9 °F 21.2 °F 86% 29.26 in 10.0 mi WSW 6.9 mph - N/A Snow Light Snow
6:33 PM 24.8 °F 16.9 °F 21.2 °F 86% 29.26 in 10.0 mi West 6.9 mph - N/A Snow Light Snow
6:53 PM 24.8 °F 17.9 °F 21.2 °F 86% 29.25 in 4.0 mi West 5.8 mph - N/A Snow Light Snow
7:13 PM 24.8 °F 15.3 °F 21.2 °F 86% 29.26 in 5.0 mi West 9.2 mph - N/A Snow Light Snow
7:33 PM 24.8 °F 15.3 °F 17.6 °F 74% 29.28 in 7.0 mi WNW 9.2 mph 23.0 mph N/A   Clear
7:53 PM 23.0 °F 11.7 °F 15.8 °F 74% 29.28 in 7.0 mi WNW 11.5 mph 20.7 mph N/A   Clear
8:14 PM 21.2 °F 10.9 °F 12.2 °F 68% 29.30 in 4.0 mi NW 9.2 mph 26.5 mph N/A Snow Light Snow
8:33 PM 19.4 °F 10.4 °F 12.2 °F 74% 29.30 in 10.0 mi NW 6.9 mph 16.1 mph N/A   Clear
8:53 PM 19.4 °F 6.0 °F 10.4 °F 68% 29.30 in 10.0 mi West 13.8 mph 24.2 mph N/A   Clear
9:13 PM 19.4 °F 7.9 °F 10.4 °F 68% 29.32 in 7.0 mi WNW 10.4 mph 27.6 mph N/A   Clear
9:33 PM 17.6 °F 7.3 °F 10.4 °F 73% 29.32 in 10.0 mi West 8.1 mph 23.0 mph N/A   Clear
9:53 PM 15.8 °F 0.3 °F 3.2 °F 58% 29.34 in 3.0 mi NW 16.1 mph 27.6 mph N/A Snow Light Snow
10:13 PM 14.0 °F 1.2 °F 1.4 °F 57% 29.35 in 10.0 mi NW 10.4 mph 21.9 mph N/A   Clear
10:33 PM 12.2 °F 0.7 °F 1.4 °F 62% 29.36 in 10.0 mi NW 8.1 mph 16.1 mph N/A   Clear
10:53 PM 10.4 °F -2.4 °F 1.4 °F 67% 29.37 in 10.0 mi NW 9.2 mph 21.9 mph N/A   Clear
11:13 PM 10.4 °F 2.2 °F 1.4 °F 67% 29.37 in 10.0 mi NW 4.6 mph 18.4 mph N/A   Clear
11:33 PM 10.4 °F -3.3 °F 1.4 °F 67% 29.38 in 10.0 mi WNW 10.4 mph 23.0 mph N/A   Clear
11:53 PM 8.6 °F -8.3 °F -0.4 °F 67% 29.39 in 7.0 mi NW 15.0 mph 29.9 mph N/A   Clear